When you browse on this site, cookies collect data to enhance your experience and personalize the content and advertising you see.
Visit our Privacy Policy to learn more. By continuing to use the site, you agree to this use of cookies and data.
EN

Hourly Weather Mahdia

Today, 11 July, Saturday

Time Temperature Precipitation Wind Pressure Humidity
00:00 +25°C° 0 mm 2 mps 762 mmHg 79%
01:00 +25°C° 0 mm 1 mps 762 mmHg 82%
02:00 +22°C° 0 mm 0 mps 761 mmHg 84%
03:00 +22°C° 0 mm 0 mps 761 mmHg 86%
04:00 +21°C° 0 mm 0 mps 760 mmHg 88%
05:00 +24°C° 0 mm 1 mps 761 mmHg 82%
06:00 +25°C° 0 mm 1 mps 761 mmHg 76%
07:00 +26°C° 0 mm 1 mps 761 mmHg 70%
08:00 +28°C° 0 mm 2 mps 761 mmHg 62%
09:00 +29°C° 0 mm 2 mps 761 mmHg 54%
10:00 +31°C° 0 mm 2 mps 761 mmHg 46%
11:00 +31°C° 0 mm 3 mps 761 mmHg 45%
12:00 +33°C° 0 mm 3 mps 762 mmHg 44%
13:00 +34°C° 0 mm 4 mps 762 mmHg 43%
14:00 +34°C° 0 mm 4 mps 761 mmHg 44%
15:00 +33°C° 0 mm 4 mps 761 mmHg 44%
16:00 +33°C° 0 mm 4 mps 760 mmHg 45%
17:00 +32°C° 0 mm 5 mps 760 mmHg 50%
18:00 +30°C° 0 mm 5 mps 760 mmHg 55%
19:00 +29°C° 0 mm 5 mps 760 mmHg 60%
20:00 +28°C° 0 mm 5 mps 761 mmHg 62%
21:00 +28°C° 0 mm 4 mps 761 mmHg 64%
22:00 +27°C° 0 mm 3 mps 761 mmHg 66%
23:00 +27°C° 0 mm 3 mps 761 mmHg 68%

Tomorrow, 12 July, Sunday

Time Temperature Precipitation Wind Pressure Humidity
00:00 +27°C° 0 mm 3 mps 761 mmHg 71%
01:00 +26°C° 0 mm 3 mps 761 mmHg 73%
02:00 +26°C° 0 mm 3 mps 761 mmHg 75%
03:00 +26°C° 0 mm 2 mps 761 mmHg 78%
04:00 +25°C° 0 mm 2 mps 760 mmHg 80%
05:00 +26°C° 0 mm 2 mps 761 mmHg 76%
06:00 +27°C° 0 mm 1 mps 761 mmHg 72%
07:00 +28°C° 0 mm 1 mps 761 mmHg 68%
08:00 +30°C° 0 mm 1 mps 761 mmHg 58%
09:00 +31°C° 0 mm 2 mps 762 mmHg 48%
10:00 +34°C° 0 mm 2 mps 762 mmHg 38%
11:00 +35°C° 0 mm 2 mps 762 mmHg 37%
12:00 +36°C° 0 mm 3 mps 761 mmHg 35%
13:00 +36°C° 0 mm 3 mps 761 mmHg 33%
14:00 +36°C° 0 mm 4 mps 761 mmHg 33%
15:00 +36°C° 0 mm 4 mps 761 mmHg 33%
16:00 +36°C° 0 mm 4 mps 760 mmHg 33%
17:00 +34°C° 0 mm 4 mps 760 mmHg 39%
18:00 +33°C° 0 mm 4 mps 761 mmHg 44%
19:00 +31°C° 0 mm 3 mps 761 mmHg 49%
20:00 +29°C° 0 mm 3 mps 761 mmHg 54%
21:00 +28°C° 0 mm 2 mps 762 mmHg 59%
22:00 +27°C° 0 mm 1 mps 762 mmHg 64%
23:00 +27°C° 0 mm 1 mps 762 mmHg 64%

Day after tomorrow, 13 July, Monday

Time Temperature Precipitation Wind Pressure Humidity
00:00 +27°C° 0 mm 1 mps 762 mmHg 65%
01:00 +26°C° 0 mm 1 mps 762 mmHg 65%
02:00 +26°C° 0 mm 2 mps 761 mmHg 65%
03:00 +26°C° 0 mm 2 mps 761 mmHg 66%
04:00 +25°C° 0 mm 2 mps 761 mmHg 67%
05:00 +26°C° 0 mm 2 mps 761 mmHg 62%
06:00 +27°C° 0 mm 2 mps 761 mmHg 58%
07:00 +29°C° 0 mm 2 mps 761 mmHg 53%
08:00 +30°C° 0 mm 2 mps 761 mmHg 47%
09:00 +32°C° 0 mm 2 mps 761 mmHg 40%
10:00 +35°C° 0 mm 3 mps 761 mmHg 34%
11:00 +35°C° 0 mm 3 mps 761 mmHg 33%
12:00 +36°C° 0 mm 3 mps 761 mmHg 32%
13:00 +36°C° 0 mm 3 mps 761 mmHg 32%
14:00 +36°C° 0 mm 3 mps 760 mmHg 31%
15:00 +36°C° 0 mm 4 mps 760 mmHg 31%
16:00 +36°C° 0 mm 4 mps 759 mmHg 31%
17:00 +34°C° 0 mm 4 mps 759 mmHg 37%
18:00 +33°C° 0 mm 4 mps 759 mmHg 43%
19:00 +32°C° 0 mm 4 mps 759 mmHg 49%
20:00 +30°C° 0 mm 4 mps 759 mmHg 52%
21:00 +29°C° 0 mm 3 mps 760 mmHg 54%
22:00 +28°C° 0 mm 2 mps 760 mmHg 57%
23:00 +28°C° 0 mm 2 mps 760 mmHg 57%

14 July, Tuesday

Time Temperature Precipitation Wind Pressure Humidity
00:00 +28°C° 0 mm 1 mps 760 mmHg 57%
01:00 +27°C° 0 mm 1 mps 760 mmHg 56%
02:00 +27°C° 0 mm 1 mps 759 mmHg 57%
03:00 +26°C° 0 mm 1 mps 759 mmHg 58%
04:00 +26°C° 0 mm 1 mps 759 mmHg 60%
05:00 +27°C° 0 mm 1 mps 759 mmHg 56%
06:00 +28°C° 0 mm 1 mps 759 mmHg 52%
07:00 +29°C° 0 mm 1 mps 760 mmHg 48%
08:00 +31°C° 0 mm 1 mps 760 mmHg 43%
09:00 +32°C° 0 mm 2 mps 760 mmHg 37%
10:00 +35°C° 0 mm 2 mps 760 mmHg 31%
11:00 +36°C° 0 mm 3 mps 760 mmHg 30%
12:00 +37°C° 0 mm 3 mps 760 mmHg 29%
13:00 +38°C° 0 mm 4 mps 760 mmHg 28%
14:00 +37°C° 0 mm 4 mps 759 mmHg 31%
15:00 +37°C° 0 mm 5 mps 759 mmHg 34%
16:00 +36°C° 0 mm 5 mps 758 mmHg 37%
17:00 +35°C° 0 mm 4 mps 759 mmHg 41%
18:00 +34°C° 0 mm 3 mps 759 mmHg 45%
19:00 +32°C° 0 mm 2 mps 759 mmHg 48%
20:00 +31°C° 0 mm 3 mps 760 mmHg 54%
21:00 +30°C° 0 mm 3 mps 760 mmHg 61%
22:00 +29°C° 0 mm 4 mps 760 mmHg 67%
23:00 +28°C° 0 mm 3 mps 760 mmHg 68%

15 July, Wednesday

Time Temperature Precipitation Wind Pressure Humidity
00:00 +28°C° 0 mm 3 mps 760 mmHg 70%
01:00 +28°C° 0 mm 2 mps 760 mmHg 72%
02:00 +28°C° 0 mm 2 mps 760 mmHg 72%
03:00 +28°C° 0 mm 1 mps 760 mmHg 72%
04:00 +27°C° 0 mm 1 mps 760 mmHg 72%
05:00 +28°C° 0 mm 1 mps 760 mmHg 69%
06:00 +29°C° 0 mm 1 mps 761 mmHg 65%
07:00 +30°C° 0 mm 1 mps 761 mmHg 61%
08:00 +31°C° 0 mm 1 mps 761 mmHg 53%
09:00 +34°C° 0 mm 2 mps 761 mmHg 45%
10:00 +35°C° 0 mm 2 mps 761 mmHg 38%
11:00 +36°C° 0 mm 3 mps 761 mmHg 37%
12:00 +36°C° 0 mm 3 mps 761 mmHg 36%
13:00 +37°C° 0 mm 4 mps 761 mmHg 35%
14:00 +36°C° 0 mm 5 mps 761 mmHg 37%
15:00 +36°C° 0 mm 5 mps 760 mmHg 38%
16:00 +35°C° 0 mm 5 mps 760 mmHg 39%
17:00 +34°C° 0 mm 5 mps 760 mmHg 45%
18:00 +33°C° 0 mm 5 mps 760 mmHg 51%
19:00 +30°C° 0 mm 5 mps 761 mmHg 57%
20:00 +30°C° 0 mm 4 mps 761 mmHg 62%
21:00 +29°C° 0 mm 3 mps 762 mmHg 66%
22:00 +28°C° 0 mm 2 mps 762 mmHg 70%
23:00 +28°C° 0 mm 2 mps 762 mmHg 72%

16 July, Thursday

Time Temperature Precipitation Wind Pressure Humidity
00:00 +27°C° 0 mm 2 mps 762 mmHg 73%
01:00 +27°C° 0 mm 2 mps 762 mmHg 74%
02:00 +27°C° 0 mm 2 mps 762 mmHg 74%
03:00 +27°C° 0 mm 3 mps 761 mmHg 74%
04:00 +26°C° 0 mm 4 mps 761 mmHg 75%
05:00 +27°C° 0 mm 4 mps 761 mmHg 69%
06:00 +28°C° 0 mm 4 mps 762 mmHg 62%
07:00 +29°C° 0 mm 5 mps 762 mmHg 56%
08:00 +30°C° 0 mm 5 mps 762 mmHg 50%
09:00 +32°C° 0 mm 5 mps 762 mmHg 43%
10:00 +33°C° 0 mm 6 mps 762 mmHg 37%
11:00 +34°C° 0 mm 5 mps 762 mmHg 36%
12:00 +35°C° 0 mm 5 mps 762 mmHg 35%
13:00 +35°C° 0 mm 5 mps 761 mmHg 34%
14:00 +35°C° 0 mm 5 mps 761 mmHg 36%
15:00 +34°C° 0 mm 6 mps 761 mmHg 38%
16:00 +34°C° 0 mm 7 mps 760 mmHg 40%
17:00 +33°C° 0 mm 7 mps 760 mmHg 43%
18:00 +32°C° 0 mm 7 mps 760 mmHg 46%
19:00 +29°C° 0 mm 8 mps 760 mmHg 49%
20:00 +29°C° 0 mm 7 mps 760 mmHg 54%
21:00 +28°C° 0 mm 7 mps 761 mmHg 59%
22:00 +27°C° 0 mm 6 mps 761 mmHg 63%
23:00 +27°C° 0 mm 7 mps 761 mmHg 63%
Show more